User: anonymous   Login
Location: Eaton
(41.3139°N, 82.0207°W)
Time: 23:08:40
(UTC+00:00)
Language:

Cosmos 1072 Rocket - Orbit

View from above orbital plane
View from above orbital plane
View from above satellite
View from above satellite

Ground track
Ground track

The orbit data is extracted from the following two-line orbital elements,

1 11239U 79003B   21271.52540108  .00000048  00000-0  33944-4 0  9992
2 11239  82.9431   7.3892 0040305 345.0196  25.4395 13.75855991142710
Epoch (UTC): 28 September 2021 12:36:34
Eccentricity: 0.0040305
inclination: 82.9431°
perigee height: 949 km
apogee height: 1008 km
right ascension of ascending node: 7.3892°
argument of perigee: 345.0196°
revolutions per day: 13.75855991
mean anomaly at epoch: 25.4395°
orbit number at epoch: 14271

The dashed part of the orbit path shows where the satellite is in the earth's shadow,  

DLR